W1RCY Weather Reports


time (UTC)temp
F
wind
direction
speed
knots
gust
knots
rain 1hr
in
rain 24hr
in
rain mn
in
humidity
%
barometer
mb
20260507221431 56 307 4.3 7.0 0.00 0.00 0.00 39 1003.9
20260507220927 56 330 5.2 7.8 0.00 0.00 0.00 38 1003.6
20260507220425 56 279 6.1 9.6 0.00 0.00 0.00 39 1003.6
20260507215921 58 180 5.2 7.0 0.00 0.00 0.00 38 1003.8
20260507215418 59 220 6.1 7.0 0.00 0.00 0.00 38 1003.6
20260507214915 59 258 2.6 5.2 0.00 0.00 0.00 38 1003.6
20260507214413 59 246 3.5 5.2 0.00 0.00 0.00 38 1003.5
20260507213908 59 238 4.3 8.7 0.00 0.00 0.00 40 1003.8
20260507213404 57 329 4.3 6.1 0.00 0.00 0.00 40 1003.8
20260507212902 58 350 6.1 7.8 0.00 0.00 0.00 38 1003.7
20260507212357 58 329 6.1 8.7 0.00 0.00 0.00 38 1003.7
20260507211854 59 215 4.3 7.0 0.00 0.00 0.00 39 1003.9
20260507211351 58 319 4.3 7.0 0.00 0.00 0.00 39 1003.6
20260507210848 57 241 5.2 7.8 0.00 0.00 0.00 39 1003.6
20260507210345 57 312 9.6 12.2 0.00 0.00 0.00 39 1003.6
20260507205842 58 216 5.2 7.0 0.00 0.00 0.00 41 1003.7
20260507205338 59 317 3.5 6.1 0.00 0.00 0.00 39 1003.5
20260507204835 59 263 6.1 7.8 0.00 0.00 0.00 38 1003.6
20260507204332 59 232 4.3 7.0 0.00 0.00 0.00 41 1003.4
20260507203830 59 212 5.2 7.8 0.00 0.00 0.00 39 1003.4
20260507203327 60 263 2.6 6.1 0.00 0.00 0.00 40 1003.5
20260507202823 56 239 0.9 4.3 0.00 0.00 0.00 43 1003.4
20260507202320 56 27 3.5 6.1 0.00 0.00 0.00 44 1003.6
20260507201815 57 281 7.0 12.2 0.00 0.00 0.00 42 1003.6
20260507201311 58 277 6.1 8.7 0.00 0.00 0.00 40 1003.6
20260507200808 57 248 4.3 4.3 0.00 0.00 0.00 42 1003.5
20260507200303 56 289 3.5 9.6 0.00 0.00 0.00 45 1003.6
20260507195800 55 228 7.8 9.6 0.00 0.00 0.00 44 1003.6
20260507195257 56 326 6.1 9.6 0.00 0.00 0.00 44 1003.5
20260507194755 57 303 7.0 8.7 0.00 0.00 0.00 43 1003.9
20260507194250 59 13 6.1 12.2 0.00 0.00 0.00 42 1003.7
20260507193747 59 178 2.6 6.1 0.00 0.00 0.00 42 1003.6
20260507193244 57 226 3.5 5.2 0.00 0.00 0.00 45 1003.7
20260507192740 57 304 4.3 9.6 0.00 0.00 0.00 44 1003.8
20260507192237 59 249 7.8 7.8 0.00 0.00 0.00 41 1003.9
20260507191733 57 212 4.3 8.7 0.00 0.00 0.00 45 1004.0
20260507191230 57 253 6.1 11.3 0.00 0.00 0.00 43 1003.9
20260507190727 58 5 6.1 9.6 0.00 0.00 0.00 43 1004.1
20260507190225 58 245 4.3 6.1 0.00 0.00 0.00 44 1004.0
20260507185724 57 304 6.1 8.7 0.00 0.00 0.00 42 1004.0
20260507185220 58 231 3.5 6.1 0.00 0.00 0.00 44 1004.2
20260507184718 59 358 6.1 8.7 0.00 0.00 0.00 41 1004.1
20260507184215 59 274 3.5 9.6 0.00 0.00 0.00 45 1003.9
20260507183712 57 306 4.3 7.8 0.00 0.00 0.00 44 1004.1
20260507183208 57 236 2.6 6.1 0.00 0.00 0.00 48 1004.2
20260507182705 56 191 2.6 8.7 0.00 0.00 0.00 47 1004.3
20260507182155 57 282 6.1 13.0 0.00 0.00 0.00 46 1004.5
20260507181652 58 312 7.0 7.8 0.00 0.00 0.00 45 1004.2
20260507181149 58 300 7.8 11.3 0.00 0.00 0.00 47 1004.3
20260507180645 57 283 6.1 9.6 0.00 0.00 0.00 46 1004.3
20260507180142 56 328 5.2 7.0 0.00 0.00 0.00 45 1004.5
20260507175638 58 313 7.0 8.7 0.00 0.00 0.00 46 1004.2
20260507175135 57 317 4.3 7.8 0.00 0.00 0.00 49 1004.3
20260507174632 58 322 7.8 9.6 0.00 0.00 0.00 43 1004.4
20260507174131 57 295 5.2 8.7 0.00 0.00 0.00 45 1004.3
20260507173627 57 263 7.0 13.0 0.00 0.00 0.00 45 1004.1
20260507173124 57 304 6.1 11.3 0.00 0.00 0.00 41 1004.3
20260507172620 57 324 5.2 11.3 0.00 0.00 0.00 45 1004.5
20260507172118 56 338 8.7 9.6 0.00 0.00 0.00 46 1004.5
20260507171613 56 309 5.2 9.6 0.00 0.00 0.00 51 1004.5
20260507171110 56 264 7.0 12.2 0.00 0.00 0.00 51 1004.6
20260507170607 54 329 4.3 7.8 0.00 0.00 0.00 52 1004.7
20260507170104 56 346 9.6 11.3 0.00 0.00 0.00 54 1004.5
20260507165559 56 252 5.2 7.0 0.00 0.00 0.00 57 1004.6
20260507165056 55 244 2.6 5.2 0.00 0.00 0.00 59 1004.7
20260507164552 55 347 5.2 7.0 0.00 0.00 0.00 63 1004.7
20260507164049 54 334 6.1 11.3 0.00 0.00 0.00 65 1005.2
20260507163547 55 285 6.1 7.8 0.00 0.00 0.00 64 1005.0
20260507163044 54 287 10.4 14.8 0.00 0.00 0.00 64 1005.0
20260507162539 53 289 6.1 7.8 0.00 0.00 0.00 68 1005.0
20260507162036 54 171 4.3 9.6 0.00 0.00 0.00 69 1005.2
20260507161532 55 300 2.6 7.0 0.00 0.00 0.00 66 1005.0
20260507161029 53 311 7.0 8.7 0.00 0.00 0.00 66 1004.8
20260507160525 54 309 4.3 6.1 0.00 0.00 0.00 65 1005.2
20260507160022 54 275 7.0 8.7 0.00 0.00 0.00 66 1005.3
20260507155517 55 324 5.2 7.0 0.00 0.00 0.00 65 1005.1
20260507155015 56 208 1.7 5.2 0.00 0.00 0.00 62 1005.3
20260507154511 53 264 4.3 8.7 0.00 0.00 0.00 66 1005.4
20260507154009 52 254 2.6 7.0 0.00 0.00 0.00 68 1005.4
20260507153505 53 263 3.5 6.1 0.00 0.00 0.00 67 1005.6
20260507153001 53 309 3.5 6.1 0.00 0.00 0.00 69 1005.6
20260507152457 53 283 6.1 7.8 0.00 0.00 0.00 68 1005.8
20260507151954 53 319 6.1 7.0 0.00 0.00 0.00 68 1005.7
20260507151450 54 282 6.1 9.6 0.00 0.00 0.00 67 1005.6
20260507150947 54 315 5.2 7.0 0.00 0.00 0.00 68 1005.6
20260507150444 53 348 7.8 12.2 0.00 0.00 0.00 67 1005.5
20260507145940 53 204 4.3 7.8 0.00 0.00 0.00 68 1005.8
20260507145436 53 266 7.8 8.7 0.00 0.00 0.00 68 1005.6
20260507144933 54 318 7.8 13.0 0.00 0.00 0.00 69 1005.6
20260507144430 55 253 6.1 9.6 0.00 0.00 0.00 69 1005.4
20260507143927 54 312 7.0 9.6 0.00 0.00 0.00 66 1005.6
20260507143425 54 258 4.3 5.2 0.00 0.00 0.00 67 1005.3
20260507142921 54 284 4.3 11.3 0.00 0.00 0.00 66 1005.4
20260507142416 54 235 6.1 7.8 0.00 0.00 0.00 68 1005.2
20260507141914 54 231 4.3 11.3 0.00 0.00 0.00 66 1005.4
20260507141410 53 286 6.1 8.7 0.00 0.00 0.00 67 1005.5
20260507140907 54 307 6.1 9.6 0.00 0.00 0.00 65 1005.4
20260507140403 53 258 4.3 7.0 0.00 0.00 0.00 65 1005.5
20260507135901 53 244 4.3 9.6 0.00 0.00 0.00 64 1005.6
20260507135358 53 325 5.2 9.6 0.00 0.00 0.00 68 1005.6
20260507134855 53 242 2.6 7.8 0.00 0.00 0.00 69 1005.4
20260507134351 53 297 7.0 7.8 0.00 0.00 0.00 66 1005.6
20260507133847 53 268 1.7 6.1 0.00 0.00 0.00 68 1005.6
20260507133343 53 258 2.6 7.0 0.00 0.00 0.00 68 1005.8
20260507132842 52 32 2.6 4.3 0.00 0.00 0.00 70 1005.7
20260507132338 52 313 5.2 7.0 0.00 0.00 0.00 69 1005.8
20260507131835 52 245 5.2 7.0 0.00 0.00 0.00 69 1005.9
20260507131332 52 299 5.2 7.0 0.00 0.00 0.00 69 1005.9
20260507130829 52 266 1.7 5.2 0.00 0.00 0.00 70 1005.9
20260507130326 51 311 5.2 7.0 0.00 0.00 0.00 68 1005.9
20260507125825 51 277 3.5 7.0 0.00 0.00 0.00 73 1005.7
20260507125322 51 255 4.3 6.1 0.00 0.00 0.00 71 1006.0
20260507124819 50 300 5.2 7.8 0.00 0.00 0.00 69 1005.9
20260507124315 50 281 3.5 6.1 0.00 0.00 0.00 70 1005.8
20260507123814 50 280 1.7 5.2 0.00 0.00 0.00 71 1005.9
20260507123311 50 249 2.6 4.3 0.00 0.00 0.00 73 1005.9
20260507122807 50 219 3.5 5.2 0.00 0.00 0.00 73 1006.0
20260507122306 50 238 2.6 2.6 0.00 0.00 0.00 76 1006.0
20260507121758 49 257 2.6 7.8 0.00 0.00 0.00 76 1005.7
20260507121254 49 295 2.6 4.3 0.00 0.00 0.00 77 1006.0
20260507120750 49 274 5.2 6.1 0.00 0.00 0.00 78 1006.0
20260507120248 48 311 2.6 7.0 0.00 0.00 0.00 80 1006.0
20260507115743 48 30 4.3 5.2 0.00 0.00 0.00 80 1005.9
20260507115239 48 278 5.2 7.8 0.00 0.00 0.00 80 1005.9
20260507114735 47 358 4.3 9.6 0.00 0.00 0.00 82 1006.0
20260507114233 47 356 6.1 7.8 0.00 0.00 0.00 82 1006.0
20260507113730 47 273 2.6 7.0 0.00 0.00 0.00 87 1006.0
20260507113227 46 260 2.6 4.3 0.00 0.00 0.00 88 1006.0
20260507112724 46 274 4.3 5.2 0.00 0.00 0.00 88 1005.8
20260507112221 46 262 2.6 4.3 0.00 0.00 0.00 89 1005.8
20260507111719 45 275 2.6 2.6 0.00 0.00 0.00 90 1005.9
20260507111216 45 263 1.7 4.3 0.00 0.00 0.00 91 1005.7
20260507110711 44 242 2.6 2.6 0.00 0.00 0.00 92 1005.6
20260507110208 44 222 2.6 2.6 0.00 0.00 0.00 92 1005.6
20260507105705 44 240 1.7 2.6 0.00 0.00 0.00 92 1005.7
20260507105201 44 244 1.7 1.7 0.00 0.00 0.00 92 1005.8
20260507104659 45 256 2.6 4.3 0.00 0.00 0.00 92 1005.7
20260507104155 45 292 1.7 4.3 0.00 0.00 0.00 92 1006.0
20260507103651 45 247 1.7 2.6 0.00 0.00 0.00 92 1006.0
20260507103148 44 248 2.6 2.6 0.00 0.00 0.00 93 1005.5
20260507102644 44 295 1.7 4.3 0.00 0.00 0.00 92 1005.4
20260507102140 45 279 2.6 2.6 0.00 0.00 0.00 92 1005.8
20260507101636 45 236 1.7 5.2 0.00 0.00 0.00 93 1006.0
20260507101132 45 327 3.5 5.2 0.00 0.00 0.00 93 1005.7
20260507100630 44 264 3.5 5.2 0.00 0.00 0.00 93 1005.7
20260507100128 45 250 4.3 5.2 0.00 0.00 0.00 93 1005.9
20260507095626 44 331 4.3 6.1 0.00 0.00 0.00 94 1006.1
20260507095122 45 324 3.5 4.3 0.00 0.00 0.00 94 1005.8
20260507094618 45 319 2.6 2.6 0.00 0.00 0.00 94 1005.8
20260507094115 45 252 2.6 5.2 0.00 0.00 0.00 94 1006.0
20260507093613 45 304 2.6 5.2 0.00 0.00 0.00 94 1005.7
20260507093111 45 299 3.5 6.1 0.00 0.00 0.00 94 1005.8
20260507092607 45 299 2.6 4.3 0.00 0.00 0.00 95 1005.5
20260507092104 45 319 2.6 4.3 0.00 0.00 0.00 95 1005.7
20260507091601 45 261 1.7 4.3 0.00 0.00 0.00 95 1005.6
20260507091057 45 296 4.3 6.1 0.00 0.00 0.00 95 1005.4
20260507090553 45 204 2.6 4.3 0.00 0.00 0.00 95 1005.6
20260507090050 45 228 2.6 4.3 0.00 0.00 0.00 95 1005.1
20260507085547 45 267 2.6 2.6 0.00 0.00 0.00 95 1005.1
20260507085044 45 248 3.5 5.2 0.00 0.00 0.00 95 1005.2
20260507084540 45 288 4.3 7.0 0.00 0.00 0.00 95 1005.1
20260507084037 45 324 3.5 6.1 0.00 0.00 0.00 95 1005.0
20260507083533 45 323 4.3 6.1 0.00 0.00 0.00 95 1005.4
20260507083031 45 200 5.2 8.7 0.00 0.00 0.00 95 1005.1
20260507082526 45 235 2.6 6.1 0.00 0.00 0.00 95 1005.0
20260507082023 45 279 3.5 6.1 0.00 0.00 0.00 95 1005.1
20260507081519 45 234 2.6 4.3 0.00 0.00 0.00 95 1005.3
20260507081017 45 318 3.5 4.3 0.00 0.00 0.00 95 1005.4
20260507080512 45 289 3.5 5.2 0.00 0.00 0.00 95 1005.3
20260507080009 45 235 1.7 5.2 0.00 0.00 0.00 95 1005.2
20260507075504 45 276 6.1 6.1 0.00 0.00 0.00 95 1004.8
20260507075001 46 321 2.6 6.1 0.00 0.00 0.00 94 1004.5
20260507074458 46 283 3.5 6.1 0.00 0.00 0.00 94 1004.5
20260507073956 46 279 4.3 5.2 0.00 0.00 0.00 94 1004.5
20260507073452 46 245 1.7 2.6 0.00 0.00 0.00 94 1005.0
20260507072948 46 230 2.6 7.0 0.00 0.00 0.00 94 1004.6
20260507072446 46 321 5.2 7.0 0.00 0.00 0.00 94 1004.6
20260507071943 46 269 2.6 4.3 0.00 0.00 0.00 94 1004.5
20260507071440 46 276 2.6 7.0 0.00 0.00 0.00 94 1004.5
20260507070937 46 253 4.3 5.2 0.00 0.00 0.00 94 1004.5
20260507070434 46 279 2.6 4.3 0.00 0.00 0.00 95 1004.6
20260507065931 46 168 3.5 5.2 0.00 0.00 0.00 95 1004.5
20260507065428 47 32 3.5 6.1 0.00 0.00 0.00 96 1004.6
20260507064925 47 21 3.5 4.3 0.00 0.00 0.00 97 1004.4
20260507064423 47 238 0.9 2.6 0.00 0.00 0.00 97 1004.4
20260507063921 47 258 1.7 4.3 0.00 0.00 0.00 97 1004.4
20260507063417 47 238 0.9 5.2 0.00 0.00 0.00 97 1004.6
20260507062914 47 256 1.7 4.3 0.00 0.00 0.00 97 1004.3
20260507062411 48 268 0.0 1.7 0.00 0.00 0.00 97 1004.4
20260507061909 48 246 0.0 0.0 0.00 0.00 0.00 97 1004.5
20260507061407 48 240 0.0 0.9 0.00 0.00 0.00 97 1004.4
20260507060905 48 258 0.9 2.6 0.00 0.00 0.00 96 1004.7
20260507060401 48 351 2.6 4.3 0.00 0.00 0.00 96 1004.3
20260507055852 48 261 2.6 5.2 0.00 0.00 0.00 96 1004.5
20260507055347 48 254 2.6 4.3 0.00 0.00 0.00 96 1004.3
20260507054845 48 303 1.7 1.7 0.00 0.00 0.00 96 1004.3
20260507054340 48 283 0.9 1.7 0.00 0.00 0.00 96 1004.2
20260507053838 48 340 2.6 5.2 0.00 0.00 0.00 97 1004.0
20260507053336 48 290 1.7 1.7 0.00 0.00 0.00 97 1004.2
20260507052834 48 308 2.6 2.6 0.00 0.00 0.00 97 1004.0
20260507052331 48 240 1.7 5.2 0.00 0.00 0.00 97 1004.0
20260507051828 48 278 3.5 5.2 0.00 0.00 0.00 97 1004.3
20260507051326 48 240 1.7 6.1 0.00 0.00 0.00 97 1004.1
20260507050822 48 255 3.5 6.1 0.00 0.00 0.00 97 1004.0
20260507050319 48 245 4.3 7.0 0.00 0.00 0.00 97 1003.6
20260507045816 48 288 3.5 6.1 0.00 0.00 0.00 97 1003.7
20260507045312 48 337 4.3 8.7 0.00 0.00 0.00 98 1003.9
20260507044809 49 326 4.3 6.1 0.00 0.00 0.00 98 1004.2
20260507044306 49 245 3.5 6.1 0.00 0.00 0.00 98 1004.1
20260507043802 49 306 2.6 5.2 0.00 0.00 0.00 98 1003.9
20260507043259 49 202 4.3 6.1 0.00 0.00 0.00 98 1004.3
20260507042755 49 244 4.3 8.7 0.00 0.00 0.00 98 1004.3
20260507042250 49 273 6.1 7.0 0.00 0.00 0.00 99 1003.9
20260507041748 49 257 5.2 7.8 0.00 0.00 0.00 99 1003.9
20260507041244 49 326 3.5 7.0 0.00 0.00 0.00 99 1003.8
20260507040741 50 216 2.6 5.2 0.00 0.00 0.00 99 1003.7
20260507040237 50 350 4.3 7.0 0.00 0.00 0.00 99 1003.7
20260507035734 50 285 5.2 8.7 0.00 0.25 0.25 99 1003.7
20260507035229 50 308 6.1 7.0 0.07 0.25 0.25 99 1004.0
20260507034727 51 343 3.5 5.2 0.07 0.25 0.25 99 1003.7
20260507034223 51 265 5.2 7.0 0.05 0.24 0.24 99 1003.8
20260507033722 51 242 4.3 7.0 0.05 0.24 0.24 99 1004.0
20260507033219 51 300 4.3 8.7 0.07 0.23 0.23 99 1003.9
20260507032717 52 260 6.1 8.7 0.07 0.23 0.23 98 1003.9
20260507032212 52 327 8.7 12.2 0.00 0.22 0.22 99 1003.7
20260507031709 53 324 4.3 7.0 0.00 0.22 0.22 99 1004.0
20260507031206 53 269 6.1 8.7 0.00 0.22 0.22 99 1003.9
20260507030703 53 326 7.0 9.6 0.00 0.22 0.22 99 1003.8
20260507030200 53 242 7.0 9.6 0.00 0.22 0.22 99 1003.7
20260507025657 53 169 5.2 6.1 0.00 0.22 0.22 99 1003.7
20260507025154 54 122 4.3 7.0 0.00 0.22 0.22 99 1003.4
20260507024652 54 288 4.3 6.1 0.00 0.22 0.22 99 1003.5
20260507024149 54 306 5.2 7.0 0.00 0.22 0.22 99 1003.3
20260507023644 54 50 6.1 7.0 0.00 0.22 0.22 99 1003.3
20260507023142 54 320 4.3 6.1 0.05 0.22 0.22 99 1003.6
20260507022639 54 82 6.1 7.8 0.05 0.22 0.22 99 1003.7
20260507022135 55 297 3.5 7.0 0.00 0.21 0.21 99 1003.4
20260507021631 55 268 6.1 7.8 0.07 0.21 0.21 99 1003.3
20260507021127 56 179 6.1 7.0 0.00 0.20 0.20 99 1003.3
20260507020625 57 355 4.3 6.1 0.00 0.20 0.20 99 1003.6
20260507020121 58 257 1.7 4.3 0.00 0.20 0.20 99 1003.0
20260507015620 58 252 1.7 2.6 0.00 0.20 0.20 99 1003.4
20260507015117 58 183 4.3 7.8 0.00 0.20 0.20 99 1003.3
20260507014613 58 165 3.5 7.0 0.00 0.20 0.20 99 1003.2
20260507014109 58 193 2.6 7.0 0.00 0.20 0.20 99 1003.2
20260507013606 58 224 1.7 4.3 0.00 0.20 0.20 99 1003.2
20260507013103 58 164 4.3 6.1 0.00 0.20 0.20 99 1003.3
20260507012600 58 209 1.7 5.2 0.00 0.20 0.20 99 1003.3
20260507012056 58 166 1.7 7.0 0.00 0.20 0.20 99 1003.3
20260507011554 58 158 3.5 5.2 0.00 0.20 0.20 99 1003.3
20260507011050 58 221 0.9 6.1 0.00 0.20 0.20 99 1003.2
20260507010545 58 239 0.9 4.3 0.00 0.20 0.20 99 1003.3
20260507010041 58 174 3.5 7.0 0.00 0.20 0.20 99 1003.3
20260507005539 58 188 3.5 9.6 0.00 0.20 0.20 99 1003.2
20260507005035 58 206 4.3 7.0 0.00 0.20 0.20 99 1003.2
20260507004532 58 163 6.1 7.0 0.00 0.20 0.20 99 1003.1
20260507004029 58 190 7.8 8.7 0.00 0.20 0.20 99 1003.4
20260507003525 58 173 9.6 11.3 0.00 0.20 0.20 99 1003.5
20260507003020 58 200 6.1 11.3 0.00 0.20 0.20 99 1003.2
20260507002517 58 159 4.3 6.1 0.00 0.20 0.20 99 1003.2
20260507002013 58 212 4.3 8.7 0.00 0.20 0.20 99 1003.1
20260507001509 58 166 4.3 8.7 0.00 0.20 0.20 99 1003.0
20260507001007 58 164 3.5 7.0 0.00 0.20 0.20 99 1002.9
20260507000503 58 180 6.1 7.8 0.00 0.20 0.20 99 1003.1
20260506235958 58 182 6.1 13.0 0.00 0.20 0.20 99 1003.0
20260506235456 58 188 6.1 9.6 0.00 0.20 0.20 99 1002.8
20260506234952 58 180 7.8 9.6 0.00 0.20 0.20 99 1003.0
20260506234449 58 222 4.3 7.8 0.00 0.20 0.20 99 1003.0
20260506233947 58 168 3.5 11.3 0.00 0.20 0.20 99 1003.0
20260506233443 58 181 10.4 13.0 0.00 0.20 0.20 99 1003.0
20260506232940 58 169 7.8 12.2 0.00 0.20 0.20 99 1003.2
20260506232436 58 184 8.7 12.2 0.00 0.20 0.20 99 1003.1
20260506231931 58 192 7.8 14.8 0.00 0.20 0.20 99 1003.1
20260506231429 58 193 6.1 9.6 0.00 0.20 0.20 99 1003.0
20260506230926 58 183 7.0 11.3 0.00 0.20 0.20 99 1003.1
20260506230423 58 198 7.0 9.6 0.00 0.20 0.20 99 1003.1
20260506225920 58 178 7.0 9.6 0.00 0.20 0.20 99 1003.0
20260506225417 58 178 4.3 13.9 0.00 0.20 0.20 99 1003.2
20260506224914 58 169 7.8 13.0 0.00 0.20 0.20 99 1003.3
20260506224411 58 171 6.1 14.8 0.00 0.20 0.20 99 1003.1
20260506223907 59 168 9.6 13.0 0.00 0.20 0.20 99 1003.1
20260506223403 59 193 4.3 7.8 0.00 0.20 0.20 99 1003.3
20260506222900 59 185 5.2 11.3 0.00 0.20 0.20 99 1003.1
20260506222356 59 161 8.7 13.0 0.00 0.20 0.20 99 1003.3
20260506221853 59 182 7.0 9.6 0.00 0.20 0.20 99 1003.3